• Join FlightAware (Why Join?)
  • Login
  • US Flag 
08:26PM EDT


 

Airport Tracker/Info


-or-


 

Live Flight TrackerFlight Track Log ✈ UAL1519 ✈ 13-May-2013 ✈ KEWR - KMCO

Flight Track Log - Related Links

Times and Time Zones

All times are in EDT time to prevent confusion due to time zone crossing. See the UAL1519 flight status page for this flight to view local times or setup timezone preferences in your user account.

Time Position Orientation Groundspeed Altitude Reporting Facility
EDT Latitude Longitude Course Direction KTS MPH feet Rate Location/Type
11:51AM 40.6692 -74.1814 206° Southwest 164 189 1,000  Level FlightAware ADS-B
11:51AM 40.6668 -74.1818 187° South 182 209 1,100 2,220 Climbing FlightAware ADS-B
11:51AM 40.6624 -74.1817 179° South 189 217 1,300 2,820 Climbing FlightAware ADS-B
11:51AM 40.6496 -74.1814 179° South 198 228 2,000 2,820 Climbing FlightAware ADS-B
11:52AM 40.6469 -74.1826 199° South 192 221 2,100 3,000 Climbing FlightAware ADS-B
11:52AM 40.6442 -74.1843 206° Southwest 189 217 2,300 3,480 Climbing FlightAware ADS-B
11:52AM 40.6391 -74.1910 225° Southwest 187 215 2,800 3,000 Climbing FlightAware ADS-B
11:52AM 40.6377 -74.1942 240° Southwest 191 220 2,900 2,160 Climbing FlightAware ADS-B
11:52AM 40.6354 -74.2027 250° West 195 224 3,200 2,280 Climbing FlightAware ADS-B
11:52AM 40.6343 -74.2092 257° West 203 234 3,400 2,400 Climbing FlightAware ADS-B
11:52AM 40.6331 -74.2216 263° West 213 245 3,800 2,160 Climbing FlightAware ADS-B
11:52AM 40.6312 -74.2411 263° West 229 264 4,300 2,460 Climbing FlightAware ADS-B
11:53AM 40.6292 -74.2614 263° West 221 254 5,000 3,180 Climbing FlightAware ADS-B
11:53AM 40.6290 -74.2638 264° West 229 264 5,100 4,080 Climbing FlightAware ADS-B
11:53AM 40.6267 -74.2851 262° West 240 276 6,100 3,780 Climbing FlightAware ADS-B
11:53AM 40.6263 -74.2906 265° West 242 278 6,300 3,000 Climbing FlightAware ADS-B
11:53AM 40.6249 -74.3030 262° West 248 285 6,700 3,000 Climbing FlightAware ADS-B
11:53AM 40.6242 -74.3081 260° West 248 285 6,900 3,780 Climbing FlightAware ADS-B
11:53AM 40.6225 -74.3181 257° West 250 288 7,400 4,200 Climbing FlightAware ADS-B
11:53AM 40.6216 -74.3229 256° West 249 287 7,600 4,560 Climbing FlightAware ADS-B
11:54AM 40.6182 -74.3376 253° West 243 280 8,400 4,380 Climbing FlightAware ADS-B
11:54AM 40.6145 -74.3505 249° West 244 281 9,000 3,600 Climbing FlightAware ADS-B
11:54AM 40.6079 -74.3721 248° West 250 288 9,900 2,580 Climbing FlightAware ADS-B
11:54AM 40.5942 -74.4170 248° West 276 318 11,000 2,340 Climbing FlightAware ADS-B
11:55AM 40.5785 -74.4680 248° West 300 345 12,300 2,940 Climbing FlightAware ADS-B
11:55AM 40.5648 -74.5127 248° West 305 351 13,800 3,240 Climbing FlightAware ADS-B
11:56AM 40.5485 -74.5663 248° West 313 360 15,400 3,000 Climbing FlightAware ADS-B
11:56AM 40.5298 -74.6262 248° West 320 368 17,000 3,000 Climbing FlightAware ADS-B
11:57AM 40.5128 -74.6801 247° West 323 372 18,600 3,060 Climbing FlightAware ADS-B
11:57AM 40.5035 -74.7095 247° West 326 375 19,400 2,880 Climbing FlightAware ADS-B
11:58AM 40.4918 -74.7729 256° West 331 381 21,000 2,340 Climbing FlightAware ADS-B
11:58AM 40.4843 -74.8344 261° West 336 387 21,900 1,620 Climbing FlightAware ADS-B
11:59AM 40.4774 -74.8945 261° West 328 377 22,700 1,860 Climbing FlightAware ADS-B
11:59AM 40.4707 -74.9539 262° West 333 383 23,800 2,280 Climbing FlightAware ADS-B
12:00PM 40.4642 -75.0173 262° West 338 389 25,100 2,040 Climbing FlightAware ADS-B
12:00PM 40.4582 -75.0806 263° West 347 399 26,000 1,920 Climbing FlightAware ADS-B
12:01PM 40.4544 -75.1242 263° West 348 400 26,800 2,100 Climbing FlightAware ADS-B
12:01PM 40.4515 -75.1448 260° West 345 397 27,100 2,100 Climbing FlightAware ADS-B
12:01PM 40.4458 -75.1664 251° West 343 395 27,500 1,800 Climbing FlightAware ADS-B
12:01PM 40.4391 -75.1848 244° Southwest 347 399 27,700 900 Climbing FlightAware ADS-B
12:01PM 40.4311 -75.2021 239° Southwest 351 404 27,800 540 Climbing FlightAware ADS-B
12:02PM 40.4192 -75.2215 231° Southwest 357 411 27,900 660 Climbing FlightAware ADS-B
12:02PM 40.3846 -75.2703 227° Southwest 375 432 28,300 1,140 Climbing FlightAware ADS-B
12:03PM 40.3485 -75.3211 227° Southwest 379 436 29,100 1,920 Climbing FlightAware ADS-B
12:03PM 40.3143 -75.3704 228° Southwest 376 433 30,200 1,860 Climbing FlightAware ADS-B
12:04PM 40.2762 -75.4241 227° Southwest 383 441 31,000 1,200 Climbing FlightAware ADS-B
12:04PM 40.2345 -75.4752 223° Southwest 391 450 31,500 1,140 Climbing FlightAware ADS-B
12:05PM 40.1940 -75.5236 222° Southwest 394 453 32,200 1,320 Climbing FlightAware ADS-B
12:05PM 40.1536 -75.5735 223° Southwest 398 458 32,900 1,320 Climbing FlightAware ADS-B
12:06PM 40.1126 -75.6243 223° Southwest 401 461 33,600 1,440 Climbing FlightAware ADS-B
12:06PM 40.0704 -75.6761 223° Southwest 403 464 34,400 1,440 Climbing FlightAware ADS-B
12:07PM 40.0292 -75.7252 222° Southwest 402 463 35,100 1,320 Climbing FlightAware ADS-B
12:07PM 39.9873 -75.7740 222° Southwest 405 466 35,800 1,140 Climbing FlightAware ADS-B
12:08PM 39.9444 -75.8225 221° Southwest 409 471 36,300 840 Climbing FlightAware ADS-B
12:08PM 39.8994 -75.8735 221° Southwest 414 476 36,700 840 Climbing FlightAware ADS-B
12:09PM 39.8555 -75.9233 221° Southwest 415 478 37,200 960 Climbing FlightAware ADS-B
12:09PM 39.8112 -75.9746 222° Southwest 418 481 37,700 780 Climbing FlightAware ADS-B
12:10PM 39.7681 -76.0253 222° Southwest 420 483 38,000 240 Climbing FlightAware ADS-B
12:10PM 39.7238 -76.0776 222° Southwest 421 484 38,000  Level FlightAware ADS-B
12:11PM 39.6804 -76.1289 222° Southwest 422 486 38,000  Level FlightAware ADS-B
12:11PM 39.6366 -76.1804 222° Southwest 421 484 38,000  Level FlightAware ADS-B
12:12PM 39.5923 -76.2322 222° Southwest 421 484 38,000  Level FlightAware ADS-B
12:12PM 39.5484 -76.2836 222° Southwest 423 487 38,000  Level FlightAware ADS-B
12:13PM 39.5015 -76.3382 222° Southwest 424 488 38,000  Level FlightAware ADS-B
12:13PM 39.4600 -76.3904 224° Southwest 423 487 38,000  Level FlightAware ADS-B
12:14PM 39.4181 -76.4532 229° Southwest 421 484 38,000  Level FlightAware ADS-B
12:14PM 39.3709 -76.5274 231° Southwest 422 486 38,000  Level FlightAware ADS-B
12:15PM 39.3336 -76.5859 231° Southwest 423 487 38,000  Level FlightAware ADS-B
12:15PM 39.2959 -76.6451 231° Southwest 424 488 38,000  Level FlightAware ADS-B
12:16PM 39.2572 -76.7052 230° Southwest 423 487 38,000  Level FlightAware ADS-B
12:17PM 39.2183 -76.7660 230° Southwest 422 486 38,000  Level FlightAware ADS-B
12:17PM 39.1776 -76.8290 230° Southwest 423 487 38,000  Level FlightAware ADS-B
12:18PM 39.1376 -76.8906 230° Southwest 421 484 38,000  Level FlightAware ADS-B
12:18PM 39.0971 -76.9534 230° Southwest 423 487 38,000  Level FlightAware ADS-B
12:19PM 39.0684 -76.9972 230° Southwest 423 487 38,000  Level FlightAware ADS-B
12:19PM 39.0365 -77.0394 226° Southwest 425 489 38,000  Level FlightAware ADS-B
12:19PM 38.9997 -77.0815 222° Southwest 427 491 38,000  Level FlightAware ADS-B
12:20PM 38.9508 -77.1352 221° Southwest 429 494 38,000  Level FlightAware ADS-B
12:20PM 38.9019 -77.1882 220° Southwest 429 494 38,000  Level FlightAware ADS-B
12:21PM 38.8559 -77.2382 220° Southwest 429 494 38,000  Level FlightAware ADS-B
12:21PM 38.8056 -77.2928 220° Southwest 431 496 38,000  Level FlightAware ADS-B
12:22PM 38.7560 -77.3469 220° Southwest 431 496 38,000  Level FlightAware ADS-B
12:23PM 38.7086 -77.3984 220° Southwest 428 493 38,000  Level FlightAware ADS-B
12:23PM 38.6303 -77.4828 220° Southwest 426 490 38,000  Level FlightAware ADS-B
12:24PM 38.5491 -77.5707 220° Southwest 428 493 38,000  Level FlightAware ADS-B
12:25PM 38.4992 -77.6245 220° Southwest 429 494 38,000  Level FlightAware ADS-B
12:26PM 38.4209 -77.7086 220° Southwest 428 493 38,000  Level FlightAware ADS-B
12:26PM 38.3526 -77.7815 220° Southwest 426 490 38,000  Level FlightAware ADS-B
12:27PM 38.3020 -77.8360 220° Southwest 426 490 38,000  Level FlightAware
12:28PM 38.2350 -77.9080 220° Southwest 425 489 38,000  Level FlightAware
12:28PM 38.1730 -77.9730 220° Southwest 424 488 38,000  Level FlightAware
12:29PM 38.1150 -78.0350 220° Southwest 425 489 38,000  Level FlightAware
12:30PM 38.0460 -78.1070 219° Southwest 425 489 38,000  Level FlightAware
12:31PM 37.9870 -78.1700 220° Southwest 427 491 38,000  Level FlightAware
12:31PM 37.9220 -78.2300 216° Southwest 425 489 38,000  Level FlightAware
12:32PM 37.8500 -78.2970 216° Southwest 425 489 38,000  Level FlightAware
12:33PM 37.7870 -78.3570 217° Southwest 426 490 38,000  Level FlightAware
12:33PM 37.7180 -78.4230 217° Southwest 426 490 38,000  Level FlightAware
12:34PM 37.6550 -78.4830 217° Southwest 425 489 38,000  Level FlightAware
12:35PM 37.5850 -78.5490 217° Southwest 426 490 38,000  Level FlightAware
12:35PM 37.5230 -78.6070 217° Southwest 425 489 38,000  Level FlightAware
12:36PM 37.4600 -78.6660 217° Southwest 425 489 38,000  Level FlightAware
12:37PM 37.4000 -78.7230 217° Southwest 424 488 38,000  Level FlightAware
12:37PM 37.3430 -78.7760 216° Southwest 424 488 38,000  Level FlightAware
12:38PM 37.2550 -78.8580 217° Southwest 425 489 38,000  Level FlightAware
12:40PM 37.1210 -78.9820 216° Southwest 426 490 38,000  Level FlightAware
12:41PM 37.0530 -79.0440 216° Southwest 426 490 38,000  Level FlightAware
12:41PM 36.9990 -79.0930 216° Southwest 426 490 38,000  Level FlightAware
12:42PM 36.8970 -79.1900 217° Southwest 423 487 38,000  Level FlightAware
12:43PM 36.8310 -79.2520 217° Southwest 423 487 38,000  Level FlightAware
12:44PM 36.7340 -79.3400 216° Southwest 421 484 38,000  Level FlightAware
12:45PM 36.6810 -79.3880 216° Southwest 421 484 38,000  Level FlightAware
12:45PM 36.5880 -79.4740 217° Southwest 424 488 38,000  Level FlightAware
12:46PM 36.5200 -79.5350 216° Southwest 424 488 38,000  Level FlightAware
12:47PM 36.4660 -79.5840 216° Southwest 424 488 38,000  Level FlightAware
12:48PM 36.4120 -79.6330 216° Southwest 424 488 38,000  Level FlightAware
12:48PM 36.3580 -79.6810 216° Southwest 424 488 38,000  Level FlightAware
12:49PM 36.3040 -79.7300 216° Southwest 424 488 38,000  Level FlightAware
12:50PM 36.2370 -79.7910 216° Southwest 424 488 38,000  Level FlightAware
12:50PM 36.1830 -79.8390 216° Southwest 424 488 38,000  Level FlightAware
12:51PM 36.1290 -79.8880 216° Southwest 424 488 38,000  Level FlightAware
12:52PM 36.0750 -79.9360 216° Southwest 424 488 38,000  Level FlightAware
12:53PM 36.0080 -79.9970 216° Southwest 424 488 38,000  Level FlightAware
12:53PM 35.9540 -80.0460 216° Southwest 424 488 38,000  Level FlightAware
12:54PM 35.9000 -80.0940 216° Southwest 424 488 38,000  Level FlightAware
12:55PM 35.8460 -80.1420 216° Southwest 424 488 38,000  Level FlightAware
12:56PM 35.5050 -80.2450 194° South 38,000  Level FlightAware
12:57PM 35.3630 -80.3160 202° Southwest 438 504 38,000  Level FlightAware
12:58PM 35.2560 -80.3700 202° Southwest 437 503 38,000  Level FlightAware
12:59PM 35.1740 -80.4110 202° Southwest 437 503 38,000  Level FlightAware
01:00PM 35.1010 -80.4470 202° Southwest 437 503 38,000  Level FlightAware
01:00PM 35.0240 -80.4860 203° Southwest 437 503 38,000  Level FlightAware
01:01PM 34.9360 -80.5290 202° Southwest 437 503 38,000  Level FlightAware
01:02PM 34.8360 -80.5790 202° Southwest 440 506 38,000  Level FlightAware
01:03PM 34.7600 -80.6160 202° Southwest 441 507 38,000  Level FlightAware
01:03PM 34.6850 -80.6530 202° Southwest 440 506 38,000  Level FlightAware
01:04PM 34.6030 -80.6930 202° Southwest 441 507 38,000  Level FlightAware
01:05PM 34.5220 -80.7330 202° Southwest 441 507 38,000  Level FlightAware
01:05PM 34.4500 -80.7680 202° Southwest 440 506 38,000  Level FlightAware
01:06PM 34.3750 -80.8050 202° Southwest 438 504 38,000  Level FlightAware
01:07PM 34.2920 -80.8450 202° Southwest 436 502 38,000  Level FlightAware
01:07PM 34.2130 -80.8840 202° Southwest 439 505 38,000  Level FlightAware
01:08PM 34.1200 -80.9280 201° Southwest 442 509 38,000  Level FlightAware
01:09PM 34.0340 -80.9700 202° Southwest 444 511 38,000  Level FlightAware
01:10PM 33.9600 -81.0060 202° Southwest 445 512 38,000  Level FlightAware
01:10PM 33.8810 -81.0430 201° Southwest 449 517 38,000  Level FlightAware
01:11PM 33.7880 -81.0640 191° South 468 539 38,000  Level FlightAware
01:12PM 33.7020 -81.0710 184° South 472 543 38,000  Level FlightAware
01:12PM 33.6020 -81.0790 184° South 472 543 38,000  Level FlightAware
01:13PM 33.5160 -81.0860 184° South 471 542 38,000  Level FlightAware
01:14PM 33.4360 -81.0930 184° South 473 544 38,000  Level FlightAware
01:14PM 33.3300 -81.0980 182° South 478 550 38,000  Level FlightAware
01:15PM 33.2440 -81.0990 181° South 480 552 38,000  Level FlightAware
01:16PM 33.1540 -81.0990 180° South 482 555 38,000  Level FlightAware
01:17PM 33.0540 -81.0990 180° South 482 555 38,000  Level FlightAware
01:17PM 32.9800 -81.0990 180° South 481 554 38,000  Level FlightAware
01:18PM 32.8430 -81.0990 180° South 481 554 38,000  Level FlightAware
01:19PM 32.7400 -81.0990 180° South 481 554 38,000  Level FlightAware
01:20PM 32.6540 -81.0990 180° South 478 550 38,000  Level FlightAware
01:20PM 32.5550 -81.0990 180° South 475 547 38,000  Level FlightAware
01:21PM 32.4800 -81.1000 181° South 473 544 38,000  Level FlightAware
01:22PM 32.3630 -81.1000 180° South 473 544 38,000  Level FlightAware
01:23PM 32.2680 -81.1000 180° South 468 539 38,000  Level FlightAware
01:23PM 32.1780 -81.1000 180° South 465 535 38,000  Level FlightAware
01:24PM 32.0800 -81.1000 180° South 463 533 38,000  Level FlightAware
01:25PM 31.9940 -81.1000 180° South 461 531 38,000  Level FlightAware
01:25PM 31.9100 -81.1010 181° South 459 528 38,000  Level FlightAware
01:26PM 31.8180 -81.1010 180° South 457 526 38,000  Level FlightAware
01:27PM 31.7390 -81.1010 180° South 453 521 38,000  Level FlightAware
01:28PM 31.6170 -81.1010 180° South 449 517 38,000  Level FlightAware
01:28PM 31.5470 -81.1010 180° South 449 517 38,000  Level FlightAware
01:29PM 31.4760 -81.1010 180° South 449 517 38,000  Level FlightAware
01:30PM 31.3600 -81.1010 180° South 440 506 38,000  Level FlightAware
01:31PM 31.2610 -81.1010 180° South 439 505 38,000  Level FlightAware
01:31PM 31.1990 -81.1010 180° South 439 505 38,000  Level FlightAware
01:32PM 31.1120 -81.1010 180° South 439 505 38,000  Level FlightAware
01:33PM 31.1960 -81.1010 360° North 442 509 38,000  Level FlightAware
01:34PM 31.1100 -81.1010 180° South 442 509 38,000  Level FlightAware
01:34PM 31.0400 -81.1010 180° South 442 509 38,000  Level FlightAware
01:35PM 30.9700 -81.1010 180° South 442 509 38,000 -1,920 Level FlightAware
01:36PM 30.6570 -81.1020 180° South 447 514 35,600 -2,340 Descending FlightAware
01:38PM 30.6550 -81.1020 180° South 461 531 32,100 -1,740 Descending FlightAware
01:38PM 30.3100 -81.1030 180° South 453 521 31,100 -1,200 Descending FlightAware
01:39PM 30.2210 -81.1030 180° South 447 514 30,500 -780 Descending FlightAware
01:40PM 30.1170 -81.1030 180° South 439 505 29,900 -840 Descending FlightAware
01:40PM 30.1170 -81.1030 180° South 439 505 29,200 -540 Descending FlightAware
01:41PM 30.0360 -81.1030 180° South 439 505 29,200 -540 Level FlightAware
01:42PM 30.0530 -81.1030 360° North 439 505 28,400 -540 Descending FlightAware
01:43PM 29.9840 -81.1030 180° South 439 505 28,400  Level FlightAware
01:43PM 29.9150 -81.1030 180° South 439 505 28,400  Level FlightAware
01:44PM 29.8460 -81.1030 180° South 439 505 28,400  Level FlightAware
01:45PM 29.7770 -81.1030 180° South 439 505 28,400  Level FlightAware
01:45PM 29.7080 -81.1030 180° South 439 505 28,400 -3,600 Level FlightAware
01:48PM 29.1250 -81.1070 180° South 14,600 -4,260 Descending FlightAware
01:49PM 29.0680 -81.0960 170° South 376 433 13,300 -1,560 Descending FlightAware
01:50PM 28.9830 -81.0850 174° South 376 433 12,400 -1,440 Descending FlightAware
01:50PM 28.9310 -81.1030 197° South 339 390 11,300 -1,500 Descending FlightAware
01:51PM 28.8600 -81.1140 188° South 343 395 10,700 -720 Descending FlightAware
01:52PM 28.7990 -81.1230 187° South 343 395 10,400 -480 Descending FlightAware
01:52PM 28.7280 -81.1330 187° South 312 359 10,100 -360 Descending FlightAware
01:53PM 28.6850 -81.1390 187° South 294 338 10,000 -600 Descending FlightAware
01:53PM 28.6500 -81.1440 187° South 279 321 9,600 -1,200 Descending FlightAware
01:54PM 28.6110 -81.1490 186° South 275 316 8,900 -1,080 Descending FlightAware
01:54PM 28.5920 -81.1520 188° South 274 315 8,800 -180 Descending FlightAware
01:55PM 28.5620 -81.1560 187° South 241 277 8,800  Level FlightAware
01:55PM 28.5290 -81.1610 188° South 209 241 8,800 -420 Level FlightAware
01:56PM 28.5010 -81.1650 187° South 208 239 8,400 -1,020 Descending FlightAware
01:56PM 28.4770 -81.1690 188° South 208 239 7,900 -1,320 Descending FlightAware
01:56PM 28.4480 -81.1730 187° South 199 229 7,200 -1,500 Descending FlightAware
01:57PM 28.4330 -81.1750 187° South 198 228 6,800 -1,980 Descending FlightAware
01:57PM 28.4100 -81.1800 191° South 198 228 5,900 -2,100 Descending FlightAware
01:57PM 28.3960 -81.1840 194° South 199 229 5,400 -2,040 Descending FlightAware
01:58PM 28.3830 -81.1870 191° South 201 231 4,900 -1,980 Descending FlightAware
01:58PM 28.3590 -81.1940 194° South 203 234 4,100 -1,680 Descending FlightAware
01:59PM 28.3300 -81.2020 194° South 200 230 3,400 -1,500 Descending FlightAware
01:59PM 28.3030 -81.2120 198° South 205 236 2,600 -1,320 Descending FlightAware
01:59PM 28.2800 -81.2200 197° South 205 236 2,200 -960 Descending FlightAware
02:00PM 28.2590 -81.2310 205° Southwest 194 223 1,800 -600 Descending FlightAware
02:00PM 28.2530 -81.2450 244° Southwest 197 227 1,800  Level FlightAware
02:00PM 28.2570 -81.2650 283° West 185 213 1,800  Level FlightAware
02:01PM 28.2650 -81.2860 293° West 168 193 1,800  Level FlightAware
02:01PM 28.2790 -81.3080 306° West 165 190 1,800  Level FlightAware
02:02PM 28.2950 -81.3200 327° Northwest 164 189 1,800  Level FlightAware
02:02PM 28.3060 -81.3240 342° North 167 192 1,800 -540 Level FlightAware
02:03PM 28.3300 -81.3240 360° North 163 188 1,400 -840 Descending FlightAware
02:03PM 28.3440 -81.3240 360° North 149 171 1,100 -900 Descending FlightAware
02:03PM 28.3670 -81.3250 358° North 130 150 600 -840 Descending FlightAware
02:04PM 28.3760 -81.3250 360° North 128 147 400 -720 Descending FlightAware
02:04PM 28.3870 -81.3250 360° North 113 130 200 -600 Descending FlightAware
02:05PM 28.4070 -81.3260 357° North 117 135 -360 Descending FlightAware